When you browse on this site, cookies collect data to enhance your experience and personalize the content and advertising you see.
Visit our Privacy Policy to learn more. By continuing to use the site, you agree to this use of cookies and data.
  • In Hungary
  • List of Countries
  • For 7 days
  • Water Temperature
  • Satellite Maps
  • Weather Map
  • News
  • Weather Widgets
  • user-avatar
    Login

    Hourly Weather Lexington

    Today, 23 February, Saturday

    Time Temperature Precipitation Wind Pressure Humidity
    00:00 +4°C° 0 mm 3 mps 739 mmHg 95%
    01:00 +4°C° 0 mm 3 mps 739 mmHg 95%
    02:00 +5°C° 0 mm 3 mps 738 mmHg 95%
    03:00 +5°C° 0 mm 3 mps 737 mmHg 95%
    04:00 +7°C° 0.3 mm 3 mps 737 mmHg 95%
    05:00 +7°C° 0.3 mm 3 mps 737 mmHg 96%
    06:00 +7°C° 0.3 mm 3 mps 736 mmHg 96%
    07:00 +8°C° 1.6 mm 3 mps 736 mmHg 96%
    08:00 +8°C° 1.6 mm 4 mps 735 mmHg 96%
    09:00 +10°C° 1.6 mm 4 mps 735 mmHg 95%
    10:00 +10°C° 2.6 mm 4 mps 735 mmHg 95%
    11:00 +10°C° 2.6 mm 5 mps 734 mmHg 94%
    12:00 +11°C° 2.6 mm 6 mps 734 mmHg 94%
    13:00 +13°C° 1 mm 6 mps 733 mmHg 93%
    14:00 +14°C° 1 mm 5 mps 732 mmHg 93%
    15:00 +14°C° 1 mm 5 mps 732 mmHg 92%
    16:00 +15°C° 0.9 mm 6 mps 731 mmHg 92%
    17:00 +15°C° 0.9 mm 6 mps 730 mmHg 92%
    18:00 +15°C° 0.9 mm 6 mps 730 mmHg 92%
    19:00 +15°C° 2.4 mm 7 mps 729 mmHg 91%
    20:00 +16°C° 2.4 mm 8 mps 728 mmHg 90%
    21:00 +16°C° 2.4 mm 9 mps 727 mmHg 89%
    22:00 +17°C° 1.7 mm 9 mps 726 mmHg 90%
    23:00 +17°C° 1.7 mm 8 mps 726 mmHg 91%

    Tomorrow, 24 February, Sunday

    Time Temperature Precipitation Wind Pressure Humidity
    00:00 +17°C° 1.7 mm 8 mps 725 mmHg 92%
    01:00 +16°C° 0.9 mm 8 mps 724 mmHg 84%
    02:00 +13°C° 0.9 mm 8 mps 724 mmHg 77%
    03:00 +12°C° 0.9 mm 8 mps 724 mmHg 70%
    04:00 +10°C° 0 mm 9 mps 724 mmHg 71%
    05:00 +8°C° 0 mm 9 mps 724 mmHg 73%
    06:00 +6°C° 0 mm 10 mps 724 mmHg 75%
    07:00 +6°C° 0.1 mm 10 mps 726 mmHg 75%
    08:00 +4°C° 0.1 mm 11 mps 727 mmHg 74%
    09:00 +3°C° 0.1 mm 11 mps 728 mmHg 73%
    10:00 +3°C° 0 mm 11 mps 729 mmHg 72%
    11:00 +3°C° 0 mm 11 mps 731 mmHg 70%
    12:00 +3°C° 0 mm 11 mps 732 mmHg 69%
    13:00 +3°C° 0 mm 10 mps 732 mmHg 68%
    14:00 +3°C° 0 mm 10 mps 733 mmHg 67%
    15:00 +3°C° 0 mm 10 mps 733 mmHg 66%
    16:00 +2°C° 0 mm 9 mps 734 mmHg 65%
    17:00 +2°C° 0 mm 7 mps 734 mmHg 64%
    18:00 +2°C° 0 mm 6 mps 735 mmHg 63%
    19:00 +1°C° 0 mm 6 mps 736 mmHg 63%
    20:00 -1°C° 0 mm 7 mps 737 mmHg 63%
    21:00 -1°C° 0 mm 7 mps 738 mmHg 64%
    22:00 -2°C° 0 mm 6 mps 738 mmHg 64%
    23:00 -3°C° 0 mm 6 mps 739 mmHg 65%

    Day after tomorrow, 25 February, Monday

    Time Temperature Precipitation Wind Pressure Humidity
    00:00 -4°C° 0 mm 6 mps 740 mmHg 65%
    01:00 -5°C° 0 mm 6 mps 740 mmHg 66%
    02:00 -5°C° 0 mm 5 mps 741 mmHg 66%
    03:00 -6°C° 0 mm 5 mps 742 mmHg 66%
    04:00 -6°C° 0 mm 5 mps 742 mmHg 65%
    05:00 -7°C° 0 mm 4 mps 743 mmHg 63%
    06:00 -7°C° 0 mm 4 mps 744 mmHg 62%
    07:00 -5°C° 0 mm 4 mps 744 mmHg 56%
    08:00 -4°C° 0 mm 4 mps 745 mmHg 49%
    09:00 -3°C° 0 mm 4 mps 745 mmHg 43%
    10:00 -1°C° 0 mm 4 mps 745 mmHg 38%
    11:00 +2°C° 0 mm 3 mps 745 mmHg 34%
    12:00 +3°C° 0 mm 3 mps 745 mmHg 30%
    13:00 +4°C° 0 mm 3 mps 745 mmHg 31%
    14:00 +5°C° 0 mm 3 mps 744 mmHg 33%
    15:00 +5°C° 0 mm 3 mps 744 mmHg 34%
    16:00 +5°C° 0 mm 2 mps 744 mmHg 40%
    17:00 +3°C° 0 mm 2 mps 744 mmHg 45%
    18:00 +3°C° 0 mm 1 mps 744 mmHg 51%
    19:00 +2°C° 0 mm 1 mps 744 mmHg 52%
    20:00 +2°C° 0 mm 1 mps 744 mmHg 53%
    21:00 +1°C° 0 mm 1 mps 745 mmHg 54%
    22:00 +1°C° 0 mm 1 mps 745 mmHg 54%
    23:00 +1°C° 0 mm 1 mps 745 mmHg 55%

    26 February, Tuesday

    Time Temperature Precipitation Wind Pressure Humidity
    00:00 0°C° 0 mm 1 mps 745 mmHg 56%
    01:00 0°C° 0 mm 1 mps 745 mmHg 56%
    02:00 -2°C° 0 mm 2 mps 745 mmHg 55%
    03:00 -3°C° 0 mm 2 mps 745 mmHg 55%
    04:00 -3°C° 0 mm 2 mps 745 mmHg 54%
    05:00 -3°C° 0 mm 2 mps 745 mmHg 53%
    06:00 -3°C° 0 mm 2 mps 746 mmHg 52%
    07:00 -2°C° 0 mm 2 mps 746 mmHg 48%
    08:00 0°C° 0 mm 3 mps 746 mmHg 44%
    09:00 +1°C° 0 mm 3 mps 747 mmHg 40%
    10:00 +3°C° 0 mm 3 mps 746 mmHg 39%
    11:00 +5°C° 0 mm 2 mps 746 mmHg 39%
    12:00 +7°C° 0 mm 2 mps 746 mmHg 38%
    13:00 +8°C° 0 mm 2 mps 745 mmHg 40%
    14:00 +8°C° 0 mm 2 mps 744 mmHg 41%
    15:00 +9°C° 0 mm 2 mps 743 mmHg 42%
    16:00 +7°C° 0 mm 2 mps 743 mmHg 49%
    17:00 +5°C° 0 mm 2 mps 743 mmHg 56%
    18:00 +3°C° 0 mm 2 mps 743 mmHg 63%
    19:00 +1°C° 0 mm 3 mps 742 mmHg 66%
    20:00 +1°C° 0 mm 3 mps 742 mmHg 68%
    21:00 0°C° 0 mm 3 mps 742 mmHg 71%
    22:00 0°C° 0 mm 3 mps 742 mmHg 72%
    23:00 0°C° 0 mm 3 mps 741 mmHg 72%

    27 February, Wednesday

    Time Temperature Precipitation Wind Pressure Humidity
    00:00 -1°C° 0 mm 2 mps 741 mmHg 73%
    01:00 +1°C° 0 mm 2 mps 741 mmHg 75%
    02:00 +1°C° 0 mm 2 mps 740 mmHg 76%
    03:00 +1°C° 0 mm 2 mps 740 mmHg 78%
    04:00 +2°C° 0 mm 2 mps 740 mmHg 80%
    05:00 +1°C° 0 mm 3 mps 740 mmHg 83%
    06:00 +1°C° 0 mm 3 mps 740 mmHg 85%
    07:00 +3°C° 0 mm 3 mps 740 mmHg 79%
    08:00 +6°C° 0 mm 4 mps 740 mmHg 74%
    09:00 +8°C° 0 mm 4 mps 740 mmHg 68%
    10:00 +9°C° 0 mm 5 mps 739 mmHg 64%
    11:00 +12°C° 0 mm 5 mps 739 mmHg 60%
    12:00 +14°C° 0 mm 5 mps 738 mmHg 56%
    13:00 +14°C° 0 mm 5 mps 737 mmHg 56%
    14:00 +14°C° 0 mm 5 mps 737 mmHg 57%
    15:00 +15°C° 0 mm 5 mps 736 mmHg 58%
    16:00 +13°C° 0 mm 4 mps 736 mmHg 67%
    17:00 +11°C° 0 mm 3 mps 736 mmHg 76%
    18:00 +9°C° 0 mm 3 mps 736 mmHg 85%
    19:00 +9°C° 0 mm 2 mps 736 mmHg 87%
    20:00 +9°C° 0 mm 2 mps 737 mmHg 90%
    21:00 +8°C° 0 mm 2 mps 737 mmHg 92%
    22:00 +8°C° 0 mm 2 mps 737 mmHg 94%
    23:00 +7°C° 0 mm 2 mps 737 mmHg 95%

    28 February, Thursday

    Time Temperature Precipitation Wind Pressure Humidity
    00:00 +6°C° 0 mm 2 mps 736 mmHg 97%
    01:00 +6°C° 0.1 mm 2 mps 736 mmHg 96%
    02:00 +6°C° 0.1 mm 2 mps 736 mmHg 96%
    03:00 +6°C° 0.1 mm 2 mps 736 mmHg 95%
    04:00 +5°C° 0 mm 2 mps 736 mmHg 95%
    05:00 +4°C° 0 mm 2 mps 736 mmHg 95%
    06:00 +4°C° 0 mm 2 mps 736 mmHg 95%
    07:00 +5°C° 0 mm 2 mps 736 mmHg 92%
    08:00 +7°C° 0 mm 2 mps 736 mmHg 88%
    09:00 +8°C° 0 mm 2 mps 735 mmHg 85%
    10:00 +11°C° 0 mm 3 mps 735 mmHg 82%
    11:00 +13°C° 0 mm 3 mps 734 mmHg 78%
    12:00 +15°C° 0 mm 4 mps 734 mmHg 75%
    13:00 +13°C° 0.9 mm 4 mps 733 mmHg 81%
    14:00 +11°C° 0.9 mm 4 mps 732 mmHg 87%
    15:00 +7°C° 0.9 mm 5 mps 732 mmHg 93%
    16:00 +6°C° 0.7 mm 4 mps 732 mmHg 93%
    17:00 +5°C° 0.7 mm 3 mps 732 mmHg 93%
    18:00 +5°C° 0.7 mm 3 mps 732 mmHg 93%
    19:00 +4°C° 0.3 mm 3 mps 732 mmHg 94%
    20:00 +4°C° 0.3 mm 3 mps 732 mmHg 94%
    21:00 +4°C° 0.3 mm 3 mps 732 mmHg 95%
    22:00 +4°C° 0 mm 3 mps 732 mmHg 95%
    23:00 +3°C° 0 mm 3 mps 732 mmHg 95%
    Show more